IRIDIUM 117

Last updated on Sun Jun 21 2026 00:03:14 GMT+0000 (Coordinated Universal Time)

1 42808U 17039F 26171.47216308 .00000029 00000+0 31566-5 0 9996 2 42808 86.3966 352.2193 0002007 87.5461 272.5964 14.34217704470444
UTC large
Height (km)
Speed (km/s)
/
Latitude / Longitude
Inclination (degrees)
Orbital Period (minutes)
Azimuth
Elevation
Range (km)
Doppler Factor

Next 0 passes for location: London (51.5072 / 0.1276)

No passes found over London.
IRIDIUM 117